| time (UTC) | temp C | wind direction | speed KPH | gust KPH | rain 1hr cm | rain 24hr cm | rain mn cm | humidity % | barometer mb |
| 20260510181617 | 15 | 23 | 6.4 | 17.7 | 0.00 | 0.00 | 0.00 | 63 | 1020.7 |
| 20260510180058 | 15 | 350 | 4.8 | 12.9 | 0.00 | 0.00 | 0.00 | 64 | 1020.5 |
| 20260510174557 | 16 | 17 | 4.8 | 14.5 | 0.00 | 0.00 | 0.00 | 62 | 1020.6 |
| 20260510173046 | 16 | 15 | 6.4 | 14.5 | 0.00 | 0.00 | 0.00 | 60 | 1020.7 |
| 20260510171544 | 16 | 5 | 4.8 | 14.5 | 0.00 | 0.00 | 0.00 | 60 | 1020.7 |
| 20260510170048 | 16 | 14 | 4.8 | 16.1 | 0.00 | 0.00 | 0.00 | 63 | 1020.3 |
| 20260510164550 | 16 | 66 | 4.8 | 12.9 | 0.00 | 0.00 | 0.00 | 66 | 1020.2 |
| 20260510163054 | 15 | 64 | 0.0 | 4.8 | 0.00 | 0.00 | 0.00 | 70 | 1020.2 |
| 20260510161542 | 14 | 0 | 0.0 | 4.8 | 0.00 | 0.00 | 0.00 | 72 | 1020.2 |
| 20260510160049 | 14 | 0 | 0.0 | 0.0 | 0.00 | 0.00 | 0.00 | 75 | 1020.2 |
| 20260510154545 | 13 | 0 | 0.0 | 4.8 | 0.00 | 0.00 | 0.00 | 77 | 1020.0 |
| 20260510153050 | 12 | 0 | 0.0 | 3.2 | 0.00 | 0.00 | 0.00 | 79 | 1019.6 |
| 20260510151549 | 12 | 157 | 0.0 | 1.6 | 0.00 | 0.00 | 0.00 | 81 | 1019.8 |
| 20260510150046 | 12 | 186 | 0.0 | 3.2 | 0.00 | 0.00 | 0.00 | 81 | 1019.8 |
| 20260510144544 | 12 | 0 | 0.0 | 4.8 | 0.00 | 0.00 | 0.00 | 80 | 1019.7 |
| 20260510143040 | 11 | 114 | 1.6 | 3.2 | 0.00 | 0.00 | 0.00 | 83 | 1019.1 |
| 20260510141551 | 11 | 114 | 0.0 | 3.2 | 0.00 | 0.00 | 0.00 | 86 | 1019.5 |
| 20260510140049 | 10 | 209 | 0.0 | 3.2 | 0.00 | 0.00 | 0.00 | 86 | 1019.3 |
| 20260510134548 | 11 | 0 | 0.0 | 6.4 | 0.00 | 0.00 | 0.00 | 83 | 1019.0 |
| 20260510133046 | 10 | 0 | 0.0 | 4.8 | 0.00 | 0.00 | 0.00 | 83 | 1018.8 |
| 20260510131549 | 11 | 283 | 0.0 | 6.4 | 0.00 | 0.00 | 0.00 | 82 | 1018.3 |
| 20260510130041 | 11 | 292 | 1.6 | 11.3 | 0.00 | 0.00 | 0.00 | 82 | 1018.5 |
| 20260510124553 | 11 | 299 | 3.2 | 6.4 | 0.00 | 0.00 | 0.00 | 82 | 1018.5 |
| 20260510123048 | 11 | 307 | 1.6 | 8.0 | 0.00 | 0.00 | 0.00 | 84 | 1018.5 |
| 20260510121546 | 11 | 304 | 0.0 | 8.0 | 0.00 | 0.00 | 0.00 | 85 | 1018.6 |
| 20260510120046 | 11 | 10 | 3.2 | 8.0 | 0.00 | 0.00 | 0.00 | 85 | 1018.4 |
| 20260510114542 | 11 | 323 | 1.6 | 6.4 | 0.00 | 0.00 | 0.00 | 86 | 1018.5 |
| 20260510113044 | 11 | 0 | 0.0 | 12.9 | 0.00 | 0.00 | 0.00 | 84 | 1018.6 |
| 20260510111541 | 11 | 5 | 6.4 | 14.5 | 0.00 | 0.00 | 0.00 | 84 | 1018.4 |
| 20260510110049 | 11 | 327 | 4.8 | 12.9 | 0.00 | 0.00 | 0.00 | 85 | 1018.2 |
| 20260510104546 | 11 | 352 | 3.2 | 14.5 | 0.00 | 0.00 | 0.00 | 86 | 1017.9 |
| 20260510103049 | 11 | 352 | 6.4 | 12.9 | 0.00 | 0.00 | 0.00 | 87 | 1018.0 |
| 20260510101542 | 11 | 321 | 1.6 | 11.3 | 0.00 | 0.00 | 0.00 | 87 | 1017.8 |
| 20260510100107 | 11 | 325 | 1.6 | 6.4 | 0.00 | 0.00 | 0.00 | 87 | 1017.8 |
| 20260510094541 | 11 | 308 | 0.0 | 4.8 | 0.00 | 0.00 | 0.00 | 87 | 1017.7 |
| 20260510093049 | 12 | 306 | 1.6 | 6.4 | 0.00 | 0.00 | 0.00 | 85 | 1017.5 |
| 20260510091545 | 12 | 352 | 0.0 | 4.8 | 0.00 | 0.00 | 0.00 | 84 | 1017.7 |
| 20260510090046 | 12 | 0 | 1.6 | 6.4 | 0.00 | 0.00 | 0.00 | 84 | 1017.8 |
| 20260510084543 | 12 | 278 | 1.6 | 9.7 | 0.00 | 0.00 | 0.00 | 84 | 1017.7 |
| 20260510083057 | 12 | 300 | 3.2 | 6.4 | 0.00 | 0.00 | 0.00 | 86 | 1017.6 |
| 20260510081550 | 12 | 0 | 0.0 | 4.8 | 0.00 | 0.00 | 0.00 | 86 | 1017.3 |
| 20260510080052 | 12 | 215 | 0.0 | 3.2 | 0.00 | 0.00 | 0.00 | 88 | 1017.3 |
| 20260510074544 | 11 | 0 | 0.0 | 3.2 | 0.00 | 0.00 | 0.00 | 88 | 1017.2 |
| 20260510073045 | 12 | 204 | 1.6 | 3.2 | 0.00 | 0.00 | 0.00 | 86 | 1017.1 |
| 20260510071556 | 13 | 204 | 0.0 | 3.2 | 0.00 | 0.00 | 0.00 | 83 | 1017.1 |
| 20260510070053 | 13 | 0 | 0.0 | 0.0 | 0.00 | 0.00 | 0.00 | 83 | 1016.9 |
| 20260510064546 | 13 | 0 | 0.0 | 0.0 | 0.00 | 0.00 | 0.00 | 83 | 1016.9 |
| 20260510063051 | 13 | 0 | 0.0 | 0.0 | 0.00 | 0.00 | 0.00 | 83 | 1016.9 |
| 20260510061551 | 13 | 0 | 0.0 | 0.0 | 0.00 | 0.00 | 0.00 | 85 | 1016.8 |
| 20260510060047 | 13 | 0 | 0.0 | 0.0 | 0.00 | 0.00 | 0.00 | 83 | 1016.7 |
| 20260510054551 | 13 | 0 | 0.0 | 0.0 | 0.00 | 0.00 | 0.00 | 82 | 1016.6 |
| 20260510053041 | 14 | 0 | 0.0 | 0.0 | 0.00 | 0.00 | 0.00 | 81 | 1016.7 |
| 20260510051541 | 14 | 0 | 0.0 | 3.2 | 0.00 | 0.00 | 0.00 | 81 | 1016.8 |
| 20260510050053 | 15 | 267 | 1.6 | 4.8 | 0.00 | 0.00 | 0.00 | 79 | 1016.7 |
| 20260510044545 | 15 | 275 | 0.0 | 3.2 | 0.00 | 0.00 | 0.00 | 77 | 1016.7 |
| 20260510043049 | 16 | 240 | 0.0 | 3.2 | 0.00 | 0.00 | 0.00 | 75 | 1016.7 |
| 20260510041547 | 16 | 0 | 0.0 | 3.2 | 0.00 | 0.00 | 0.00 | 74 | 1016.8 |
| 20260510040043 | 16 | 0 | 0.0 | 3.2 | 0.00 | 0.00 | 0.00 | 72 | 1016.5 |
| 20260510034545 | 17 | 0 | 0.0 | 3.2 | 0.00 | 0.00 | 0.00 | 69 | 1016.2 |
| 20260510033110 | 18 | 221 | 1.6 | 4.8 | 0.00 | 0.00 | 0.00 | 64 | 1016.1 |
| 20260510031552 | 20 | 259 | 1.6 | 4.8 | 0.00 | 0.00 | 0.00 | 57 | 1016.2 |
| 20260510030050 | 20 | 282 | 0.0 | 1.6 | 0.00 | 0.00 | 0.00 | 53 | 1016.1 |
| 20260510024546 | 21 | 312 | 0.0 | 6.4 | 0.00 | 0.00 | 0.00 | 51 | 1016.1 |
| 20260510023046 | 21 | 294 | 0.0 | 4.8 | 0.00 | 0.00 | 0.00 | 49 | 1016.0 |
| 20260510021547 | 21 | 18 | 1.6 | 8.0 | 0.00 | 0.00 | 0.00 | 45 | 1015.9 |
| 20260510020050 | 22 | 11 | 1.6 | 11.3 | 0.00 | 0.00 | 0.00 | 43 | 1015.8 |
| 20260510014551 | 22 | 9 | 3.2 | 8.0 | 0.00 | 0.00 | 0.00 | 42 | 1016.0 |
| 20260510013044 | 23 | 5 | 3.2 | 11.3 | 0.00 | 0.00 | 0.00 | 41 | 1016.1 |
| 20260510011553 | 24 | 352 | 3.2 | 8.0 | 0.00 | 0.00 | 0.00 | 38 | 1016.1 |
| 20260510010047 | 24 | 61 | 4.8 | 11.3 | 0.00 | 0.00 | 0.00 | 34 | 1016.2 |
| 20260510004549 | 25 | 5 | 3.2 | 8.0 | 0.00 | 0.00 | 0.00 | 32 | 1016.4 |
| 20260510003108 | 25 | 342 | 3.2 | 8.0 | 0.00 | 0.00 | 0.00 | 35 | 1016.5 |
| 20260510001546 | 25 | 12 | 1.6 | 6.4 | 0.00 | 0.00 | 0.00 | 38 | 1016.4 |
| 20260510000057 | 25 | 352 | 3.2 | 6.4 | 0.00 | 0.00 | 0.00 | 34 | 1016.6 |
| 20260509234600 | 25 | 0 | 0.0 | 3.2 | 0.00 | 0.00 | 0.00 | 31 | 1016.8 |
| 20260509233048 | 25 | 22 | 1.6 | 4.8 | 0.00 | 0.00 | 0.00 | 34 | 1016.9 |
| 20260509231552 | 25 | 5 | 0.0 | 6.4 | 0.00 | 0.00 | 0.00 | 37 | 1017.2 |
| 20260509230055 | 25 | 0 | 3.2 | 8.0 | 0.00 | 0.00 | 0.00 | 33 | 1017.4 |
| 20260509224546 | 25 | 42 | 1.6 | 6.4 | 0.00 | 0.00 | 0.00 | 39 | 1017.6 |
| 20260509223048 | 25 | 0 | 0.0 | 3.2 | 0.00 | 0.00 | 0.00 | 34 | 1017.6 |
| 20260509221544 | 25 | 351 | 3.2 | 6.4 | 0.00 | 0.00 | 0.00 | 35 | 1018.2 |
| 20260509220042 | 25 | 0 | 0.0 | 6.4 | 0.00 | 0.00 | 0.00 | 43 | 1018.5 |
| 20260509214540 | 24 | 93 | 0.0 | 6.4 | 0.00 | 0.00 | 0.00 | 35 | 1018.7 |
| 20260509213052 | 24 | 327 | 1.6 | 8.0 | 0.00 | 0.00 | 0.00 | 41 | 1018.8 |
| 20260509211548 | 23 | 319 | 3.2 | 8.0 | 0.00 | 0.00 | 0.00 | 38 | 1018.9 |
| 20260509210051 | 23 | 74 | 1.6 | 8.0 | 0.00 | 0.00 | 0.00 | 40 | 1019.2 |
| 20260509204550 | 22 | 360 | 4.8 | 9.7 | 0.00 | 0.00 | 0.00 | 41 | 1019.5 |
| 20260509203047 | 22 | 72 | 3.2 | 8.0 | 0.00 | 0.00 | 0.00 | 51 | 1019.6 |
| 20260509201545 | 21 | 0 | 1.6 | 9.7 | 0.00 | 0.00 | 0.00 | 50 | 1019.8 |
| 20260509200054 | 21 | 0 | 1.6 | 9.7 | 0.00 | 0.00 | 0.00 | 53 | 1019.9 |
| 20260509194548 | 20 | 320 | 3.2 | 8.0 | 0.00 | 0.00 | 0.00 | 58 | 1020.0 |
| 20260509193046 | 20 | 20 | 0.0 | 8.0 | 0.00 | 0.00 | 0.00 | 55 | 1020.4 |
| 20260509191546 | 20 | 213 | 0.0 | 8.0 | 0.00 | 0.00 | 0.00 | 59 | 1020.5 |
| 20260509190043 | 19 | 0 | 3.2 | 8.0 | 0.00 | 0.00 | 0.00 | 56 | 1020.6 |
| 20260509184547 | 18 | 351 | 1.6 | 11.3 | 0.00 | 0.00 | 0.00 | 62 | 1020.9 |
| 20260509183124 | 18 | 235 | 3.2 | 8.0 | 0.00 | 0.00 | 0.00 | 61 | 1021.0 |